Back to catalog

COSMOS 2251 DEB

AliveLEO
NORAD 33805·DEBRIS·🇷🇺 Russia

Launched Jun 16, 1993 from Plesetsk Cosmodrome

Loading…

Next Passes (next 24 hours)

TLE

FreshSource: Space-Track

Epoch: Sep 14, 2026, 09:58 UTC

1 33805U 93036AW  26257.41539771  .00000526  00000-0  11730-3 0  9997
2 33805  74.0308 146.6340 0061833 264.8665  94.5440 14.58413796932452

Track COSMOS 2251 DEB in real time with AllMySat

Download on the App Store